Location: Newark
(13.8625°N, 100.5144°E)
Time: 06:42:10
(UTC+00:00)

XW-2F - Pass Details

Date: 04 August 2021
Orbit: 498 x 517 km, 97.5° (Epoch: 25 September)

Event Time Altitude Azimuth Distance (km) Brightness Sun altitude
Rises 22:28:06 0° 35° (NE) 2,628 ? -8.9°
Reaches altitude 10° 22:30:44 10° 55° (NE) 1,742 ? -8.3°
Maximum altitude 22:33:18 18° 99° (E) 1,331 ? -7.7°
Drops below altitude 10° 22:35:52 10° 142° (SE) 1,742 ? -7.1°
Sets 22:38:30 0° 162° (SSE) 2,627 ? -6.5°
